Regional Weather Roundup
Issued by NWS

Home | Current Version | Previous Version | Graphics & Text | Print | Product List | Glossary On
Versions: 1 2 3 4 5 6 7 8 9 10 11 12 13 14 15 16 17 18 19 20 21 22 23 24 25 26 27 28 29 30 31 32 33 34 35 36 37 38 39 40 41 42 43 44 45 46 47 48 49 50
264
ASUS43 KOAX 031602
RWRNE

WEATHER ROUNDUP FOR NEBRASKA
NATIONAL WEATHER SERVICE OMAHA NE
1100 AM CDT TUE MAY 03 2016

NOTES: SATELLITE DATA IS BEING USED TO AUGMENT CLOUD COVER ABOVE
       12000 FEET.
       "FAIR" INDICATES FEW OR NO CLOUDS BELOW 12,000 FEET WITH NO
       SIGNIFICANT WEATHER AND/OR OBSTRUCTIONS TO VISIBILITY.

  * THESE STATIONS DO NOT REPORT WEATHER SUCH AS RAIN...SNOW OR FOG.

NEZ001>004-019>022-054>056-031700-
NEBRASKA PANHANDLE

CITY           SKY/WX    TMP DP  RH WIND       PRES   REMARKS
SCOTTSBLUFF    SUNNY     60  42  51 NW10G21   30.15F
ALLIANCE       SUNNY     56  40  55 N9        30.13S
CHADRON        SUNNY     60  41  49 NW6       30.13S
KIMBALL        SUNNY     55  37  52 N18       30.19R
SIDNEY         SUNNY     55  37  50 N12       30.17R
$$

NEZ057>060-069>072-079>082-031700-
SOUTHWEST NEBRASKA

CITY           SKY/WX    TMP DP  RH WIND       PRES   REMARKS
NORTH PLATTE   SUNNY     53  46  77 W7        30.11F
IMPERIAL       MOSUNNY   54  43  66 N13       30.13R
LEXINGTON      SUNNY     57  44  60 N5        30.08S
MCCOOK         MOSUNNY   55  44  66 N9        30.10S
$$

NEZ005>010-023>029-035>040-094-031700-
NORTH CENTRAL NEBRASKA

CITY           SKY/WX    TMP DP  RH WIND       PRES   REMARKS
VALENTINE      SUNNY     58  42  55 NW10      30.09S
AINSWORTH      SUNNY     56  43  60 W7        30.09F
BROKEN BOW     SUNNY     59  42  53 N6        30.08S
ORD            SUNNY     60  44  55 NW6       30.07S
$$

NEZ041-046>049-061>064-073>077-083>087-031700-
SOUTH CENTRAL NEBRASKA

CITY           SKY/WX    TMP DP  RH WIND       PRES   REMARKS
GRAND ISLAND   SUNNY     60  40  47 SW5       30.08S
AURORA         SUNNY     60  40  48 N5        30.08R
HASTINGS       SUNNY     61  41  47 VRB3      30.07S
HEBRON         SUNNY     62  40  43 S3        30.07S
HOLDREGE       SUNNY     57  44  60 NE6       30.07S
KEARNEY *      SUNNY     57  43  58 E3        30.09R
YORK           SUNNY     63  39  42 CALM      30.07S
$$

NEZ011>018-030>034-042>045-031700-
NORTHEAST NEBRASKA

CITY           SKY/WX    TMP DP  RH WIND       PRES   REMARKS
NORFOLK        SUNNY     61  42  49 W8        30.05S
ALBION         SUNNY     62  39  43 W3        30.07S
BLAIR          SUNNY     62  43  50 SW6       30.05F
COLUMBUS *     SUNNY     63  41  45 W5        30.08S
FREMONT        SUNNY     61  45  56 W8        30.07S
TEKAMAH        SUNNY     63  46  54 W13       30.04F
$$

NEZ050>053-065>068-078-088>093-031700-
SOUTHEAST NEBRASKA

CITY           SKY/WX    TMP DP  RH WIND       PRES   REMARKS
LINCOLN        SUNNY     63  39  41 CALM      30.07F
OMAHA EPPLEY   MOSUNNY   65  41  41 W9        30.05F
BEATRICE       SUNNY     61  44  53 CALM      30.08S
FALLS CITY     MOSUNNY   64  44  48 W5        30.07S
NEBRASKA CITY  SUNNY     62  42  48 W9        30.07F
$$

NEZ044-045-051>053-067-031700-
OMAHA AREA

CITY           SKY/WX    TMP DP  RH WIND       PRES   REMARKS
OMAHA EPPLEY   MOSUNNY   65  41  41 W9        30.05F
BLAIR          SUNNY     62  43  50 SW6       30.05F
FREMONT        SUNNY     61  45  56 W8        30.07S
WAHOO          FAIR      63  42  47 SW5       30.06F
$$




USA.gov is the U.S. government's official web portal to all federal, state and local government web resources and services.